[[[{"header":{"parameterUnit":"kt","parameterCategory":2,"dx":1,"dy":1,"la1":30.253999710083008,"la2":30.299108505249023,"lo1":-89.0895004272461,"lo2":-89.04439544677734,"nx":28,"ny":28,"refTime":"2022-09-26T21:00:00:Z","depth":0,"parameterNumber":1,"parameterNumberName":"U-component_of_WINDS"},"data":[-2.0551,-2.0662,-2.0669,-2.08,-2.0828,-2.092,-2.0956,-2.1002,-2.1041,-2.1153,-2.1218,-2.1238,-2.1282,-2.1364,-2.1437,-2.1445,-2.1478,-2.1511,-2.1516,-2.1355,-2.1334,-2.1313,-2.1288,-2.1517,-2.1517,-2.1683,-2.1685,-2.1686,-2.0431,-2.0459,-2.053,-2.0604,-2.0665,-2.0636,-2.0693,-2.0747,-2.0831,-2.088,-2.0945,-2.1045,-2.1125,-2.1159,-2.1238,-2.1293,-2.1287,-2.1314,-2.1314,-2.1322,-2.1149,-2.1122,-2.1318,-2.1318,-2.1318,-2.1318,-2.1318,-2.1318,-2.0216,-2.0282,-2.033,-2.0408,-2.0447,-2.0496,-2.0562,-2.0584,-2.0655,-2.0737,-2.0732,-2.0828,-2.0881,-2.0981,-2.1017,-2.1093,-2.1065,-2.11,-2.1109,-2.112,-2.113,-2.0895,-2.1107,-2.1106,-2.1106,-2.1105,-2.1105,0,-2.0062,-2.0063,-2.0131,-2.0202,-2.0259,-2.0315,-2.0368,-2.0409,-2.0416,-2.0475,-2.0561,-2.0613,-2.0714,-2.0798,-2.0875,-2.0906,-2.0888,-2.0885,-2.091,-2.0918,-2.0913,-2.0921,-2.0643,-2.0881,-2.0879,-2.0878,-2.0877,-2.0876,-1.9849,-1.9925,-1.9979,-2.0026,-2.0057,-2.0134,-2.0182,-2.0182,-2.0233,-2.03,-2.036,-2.0442,-2.0509,-2.0648,-2.0677,-2.0755,-2.0748,-2.0838,-2.076,-2.0761,-2.0755,-2.0753,-2.0762,-2.0856,-2.0859,-2.0861,-2.0862,0,-1.973,-1.9741,-1.9861,-1.9908,-1.9922,-2.0003,-2.0044,-2.0111,-2.0126,-2.0221,-2.0244,-2.0269,-2.0355,-2.0369,-2.0471,-2.0477,-2.0614,-2.0602,-2.0596,-2.0596,-2.0682,-2.0676,-2.095,-2.0988,-2.0746,-2.0748,-2.075,0,-1.9556,-1.9655,-1.9667,-1.9737,-1.9847,-1.9846,-1.9956,-1.9981,-2.0025,-2.01,-2.0078,-2.015,-2.0157,-2.0231,-2.0239,-2.0353,-2.0371,-2.0384,-2.0386,-2.0389,-2.0388,-2.0422,-2.0414,-2.0382,-2.0381,-2.0379,-2.0378,0,-1.9371,-1.9494,-1.9605,-1.9636,-1.9698,-1.975,-1.9779,-1.9829,-1.9877,-1.994,-1.9972,-2.0046,-2.0089,-2.0148,-2.0158,-2.0105,-2.0296,-2.0226,-2.0311,-2.0311,-2.0357,-2.0356,-2.0589,-2.0376,-2.0376,-2.0376,-2.0375,0,-1.9235,-1.9297,-1.9456,-1.9507,-1.954,-1.9614,-1.9687,-1.9753,-1.9807,-1.9817,-1.9868,-1.9857,-1.9955,-1.9884,-2.002,-1.9948,-1.9991,-2.0011,-2.0018,-2.0033,-1.9955,-2.0091,-2.0307,-2.0334,-2.0039,-2.0036,-2.0034,0,-1.9023,-1.9186,-1.9186,-1.9338,-1.9416,-1.9387,-1.9469,-1.9518,-1.9537,-1.9608,-1.963,-1.9711,-1.9661,-1.9689,-1.9753,-1.9782,-1.9875,-1.9768,-1.9877,-1.9881,-1.9868,-2.0066,-2.0097,-2.0257,-1.9998,-2.0002,-2.0005,0,-1.8861,-1.8934,-1.8961,-1.8997,-1.906,-1.9125,-1.9219,-1.9298,-1.9345,-1.9402,-1.9483,-1.9595,-1.9564,-1.961,-1.9611,-1.9678,-1.9812,-1.9635,-1.9637,-1.967,-1.998,-2.0009,-2.0036,-1.9797,-1.9801,-1.9805,-1.9976,0,-1.8659,-1.8742,-1.8814,-1.8892,-1.8944,-1.904,-1.9054,-1.9107,-1.9101,-1.912,-1.9238,-1.9284,-1.9369,-1.9401,-1.9397,-1.9544,-1.9523,-1.9489,-1.9426,-1.9553,-1.9611,-1.9634,-1.9339,-1.9337,-1.9335,-1.9334,0,0,-1.8456,-1.8575,-1.8574,-1.8664,-1.8709,-1.8679,-1.878,-1.882,-1.8903,-1.8936,-1.8898,-1.9066,-1.9106,-1.9249,-1.929,-1.9323,-1.9352,-1.9307,-1.9491,-1.9509,-1.9525,-1.9586,-1.9609,-1.9331,-1.9331,-1.933,-1.933,0,-1.8386,-1.8422,-1.852,-1.8561,-1.8622,-1.8637,-1.866,-1.8716,-1.8734,-1.8848,-1.8826,-1.8899,-1.9033,-1.9079,-1.9121,-1.9288,-1.9271,-1.9312,-1.9398,-1.9475,-1.9495,-1.9512,-1.9576,-1.9598,-1.9326,-1.9326,-1.9327,0,-1.8233,-1.8272,-1.8321,-1.8418,-1.8459,-1.854,-1.8475,-1.8563,-1.8624,-1.8592,-1.8707,-1.8736,-1.8799,-1.893,-1.899,-1.896,-1.9196,-1.9123,-1.9133,-1.9142,-1.9218,-1.9241,-1.9262,-1.899,-1.8989,-1.8987,0,0,-1.8171,-1.8248,-1.8293,-1.8405,-1.8431,-1.8455,-1.85,-1.85,-1.8555,-1.8578,-1.8615,-1.8671,-1.8749,-1.8801,-1.8876,-1.9017,-1.9033,-1.9081,-1.9097,-1.911,-1.9126,-1.9205,-1.9228,-1.8983,-1.8983,-1.8982,0,0,-1.8143,-1.8199,-1.8182,-1.8314,-1.8366,-1.842,-1.8489,-1.8472,-1.854,-1.8532,-1.8538,-1.8553,-1.8676,-1.8706,-1.8641,-1.8855,-1.8791,-1.8807,-1.8831,-1.8852,-1.8867,-1.886,-1.8585,0,0,0,0,0,-1.8081,-1.8191,-1.8176,-1.82,-1.8325,-1.8427,-1.8444,-1.845,-1.8404,-1.8459,-1.8487,-1.8464,-1.8672,-1.8614,-1.864,-1.8715,-1.8922,-1.8933,-1.8943,-1.9008,-1.9029,-1.9047,0,0,0,0,0,0,-1.809,-1.812,-1.8173,-1.8231,-1.8259,-1.8424,-1.8348,-1.8353,-1.8399,-1.8392,-1.8459,-1.8466,-1.8475,-1.8602,-1.8625,-1.8696,-1.8577,-1.8926,-1.8935,-1.8944,-1.9015,-1.9032,-1.9047,0,0,0,0,0,-1.8098,-1.8122,-1.8321,-1.823,-1.8254,-1.8288,-1.8344,-1.8347,-1.8383,-1.8428,-1.8434,-1.8384,-1.8476,-1.8496,-1.8615,-1.8685,-1.8562,-1.857,-1.8932,-1.8939,-1.8946,-1.9024,0,0,0,0,0,0,-1.8104,-1.8127,-1.8326,-1.8334,-1.8188,-1.8279,-1.8293,-1.8343,-1.8416,-1.8423,-1.8353,-1.8347,-1.8479,-1.8494,-1.8509,-1.8681,-1.8549,-1.8557,-1.8563,-1.8938,-1.8943,-1.8948,0,0,0,0,0,0,-1.8114,-1.8134,-1.833,-1.8278,-1.8279,-1.8271,-1.8284,-1.8386,-1.8418,-1.8337,-1.8334,-1.8349,-1.8457,-1.8493,-1.8505,-1.8665,-1.8539,-1.8547,-1.8553,-1.8557,-1.8942,-1.8947,0,0,0,0,0,0,-1.8122,-1.8139,-1.8275,-1.8277,-1.8278,-1.8367,-1.8362,-1.8491,-1.837,-1.8334,-1.8359,-1.8354,-1.8457,-1.8469,-1.8502,-1.8657,-1.8663,-1.8539,-1.8545,-1.8549,-1.8551,0,0,0,0,0,0,0,-1.8129,-1.8014,-1.8279,-1.8277,-1.8278,-1.8406,-1.8408,-1.841,-1.8369,-1.8364,-1.836,-1.8356,-1.8492,-1.8501,-1.851,-1.865,0,0,-1.8538,-1.8542,0,0,0,0,0,0,0,0,-1.8007,-1.8013,-1.828,-1.8281,-1.8283,-1.8406,-1.8408,-1.841,-1.8368,-1.8364,-1.8361,-1.8358,-1.8494,-1.8501,-1.8509,0,0,0,0,0,0,0,0,0,0,0,0,0,0,0,-1.828,-1.8281,0,-1.8406,-1.8408,-1.8409,-1.8367,-1.8365,-1.8362,-1.8359,-1.8496,-1.8502,-1.8508,0,0,0,0,0,0,0,0,0,0,0,0,0,0,0,0,0,0,0,0,0,0,0,0,0,0,0,0,0,0,0,0,0,0,0,0,0,0,0,0,0,0,0,0,0,0,0,0,0,0,0,0,0,0,0,0,0,0,0,0,0,0,0,0,0,0,0,0,0]}],[{"header":{"parameterUnit":"kt","parameterCategory":2,"dx":1,"dy":1,"la1":30.253999710083008,"la2":30.299108505249023,"lo1":-89.0895004272461,"lo2":-89.04439544677734,"nx":28,"ny":28,"refTime":"2022-09-26T21:00:00:Z","depth":0,"parameterNumber":2,"parameterNumberName":"V-component_of_WINDS"},"data":[-12.333,-12.3477,-12.3441,-12.3592,-12.3585,-12.3681,-12.3703,-12.3728,-12.3737,-12.3846,-12.3902,-12.3878,-12.3871,-12.3927,-12.3984,-12.3971,-12.3998,-12.4078,-12.405,-12.3727,-12.3679,-12.3634,-12.3597,-12.4085,-12.4085,-12.439,-12.4393,-12.4395,-12.3099,-12.3094,-12.3163,-12.3205,-12.3263,-12.3165,-12.3189,-12.3244,-12.3331,-12.3344,-12.3396,-12.3488,-12.3554,-12.3518,-12.3576,-12.3642,-12.3598,-12.366,-12.3655,-12.3655,-12.3309,-12.327,-12.3696,-12.3695,-12.3695,-12.3695,-12.3695,-12.3695,-12.2669,-12.2759,-12.2762,-12.2836,-12.2846,-12.2874,-12.2952,-12.2921,-12.2986,-12.3042,-12.2983,-12.308,-12.3084,-12.3132,-12.3138,-12.3212,-12.3135,-12.319,-12.3204,-12.322,-12.3244,-12.2812,-12.3219,-12.3218,-12.3216,-12.3215,-12.3214,0,-12.2343,-12.2306,-12.2368,-12.2421,-12.2472,-12.2508,-12.2534,-12.2581,-12.2485,-12.2543,-12.2623,-12.2662,-12.2738,-12.2808,-12.2851,-12.2844,-12.2745,-12.273,-12.2768,-12.28,-12.2823,-12.2814,-12.2251,-12.2718,-12.2714,-12.2711,-12.2708,-12.2707,-12.1906,-12.2015,-12.1999,-12.2048,-12.2052,-12.2133,-12.2172,-12.2079,-12.2125,-12.2142,-12.2224,-12.2292,-12.2342,-12.2474,-12.2432,-12.2488,-12.244,-12.2623,-12.2448,-12.2474,-12.2444,-12.2439,-12.2449,-12.2659,-12.2666,-12.267,-12.2674,0,-12.1665,-12.1601,-12.1756,-12.1728,-12.1724,-12.1842,-12.1816,-12.19,-12.1858,-12.1968,-12.1988,-12.1922,-12.2001,-12.1928,-12.2002,-12.1962,-12.2154,-12.2105,-12.2153,-12.214,-12.2297,-12.2284,-12.2817,-12.2883,-12.2376,-12.238,-12.2385,0,-12.1268,-12.1413,-12.1309,-12.1402,-12.156,-12.1462,-12.1621,-12.16,-12.16,-12.1685,-12.156,-12.1643,-12.1536,-12.1608,-12.1549,-12.1692,-12.1705,-12.1683,-12.1666,-12.1695,-12.1698,-12.1717,-12.1694,-12.162,-12.1618,-12.1615,-12.1613,0,-12.0896,-12.1009,-12.116,-12.1175,-12.1158,-12.1231,-12.1227,-12.1225,-12.1263,-12.1301,-12.1325,-12.1376,-12.1405,-12.1446,-12.1369,-12.1253,-12.1542,-12.1366,-12.1519,-12.1522,-12.1587,-12.1584,-12.2075,-12.161,-12.1609,-12.1608,-12.1607,0,-12.0564,-12.0607,-12.0835,-12.0817,-12.085,-12.0949,-12.0993,-12.106,-12.1067,-12.1035,-12.1064,-12.0971,-12.109,-12.0921,-12.1082,-12.0953,-12.0988,-12.0977,-12.0986,-12.0992,-12.0805,-12.1093,-12.1567,-12.1614,-12.0999,-12.0994,-12.0989,0,-12.0157,-12.0369,-12.0286,-12.0504,-12.0591,-12.0444,-12.0552,-12.0561,-12.0528,-12.0596,-12.0557,-12.0635,-12.0494,-12.0508,-12.0597,-12.0561,-12.0729,-12.0536,-12.0635,-12.064,-12.0639,-12.1074,-12.1163,-12.1472,-12.0923,-12.093,-12.0935,0,-11.9833,-11.981,-11.9855,-11.9867,-11.9864,-11.9936,-12.0059,-12.0114,-12.0165,-12.0188,-12.0288,-12.0395,-12.0293,-12.0317,-12.0245,-12.0343,-12.0612,-12.0219,-12.0217,-12.0293,-12.0883,-12.0967,-12.102,-12.0543,-12.0551,-12.0557,-12.0883,0,-11.9348,-11.9445,-11.9562,-11.9594,-11.9637,-11.9769,-11.969,-11.9746,-11.9673,-11.9634,-11.978,-11.9766,-11.9821,-11.9859,-11.9788,-12.0035,-11.9982,-11.9871,-11.97,-11.9987,-12.0092,-12.0135,-11.955,-11.9545,-11.954,-11.9536,0,0,-11.8974,-11.911,-11.9013,-11.9129,-11.916,-11.9004,-11.9151,-11.9162,-11.9189,-11.9213,-11.9117,-11.9267,-11.926,-11.9444,-11.9527,-11.9549,-11.9586,-11.9488,-11.9851,-11.9886,-11.9919,-12.0033,-12.0079,-11.9528,-11.9526,-11.9525,-11.9523,0,-11.8781,-11.8779,-11.8926,-11.8933,-11.8941,-11.8891,-11.8927,-11.8906,-11.8887,-11.9028,-11.8896,-11.8973,-11.9095,-11.9105,-11.9126,-11.9464,-11.936,-11.9487,-11.9696,-11.9807,-11.9849,-11.9885,-12.0006,-12.0051,-11.9512,-11.9513,-11.9513,0,-11.8447,-11.8432,-11.8495,-11.8556,-11.8559,-11.8652,-11.8454,-11.856,-11.8627,-11.8448,-11.8591,-11.8572,-11.8578,-11.8763,-11.8842,-11.8757,-11.9159,-11.9017,-11.9044,-11.9051,-11.9154,-11.9204,-11.9249,-11.8661,-11.8658,-11.8656,0,0,-11.829,-11.8379,-11.8331,-11.8509,-11.852,-11.8448,-11.8489,-11.8419,-11.8428,-11.8433,-11.8406,-11.8419,-11.8487,-11.8535,-11.8595,-11.8809,-11.8803,-11.8915,-11.8955,-11.8988,-11.9014,-11.9126,-11.9176,-11.8646,-11.8646,-11.8645,0,0,-11.8214,-11.8167,-11.8092,-11.8287,-11.8302,-11.8265,-11.8376,-11.8282,-11.8328,-11.8304,-11.819,-11.8189,-11.8359,-11.8346,-11.8223,-11.8533,-11.8366,-11.8394,-11.8536,-11.8585,-11.8625,-11.8624,-11.8016,0,0,0,0,0,-11.7975,-11.8173,-11.8105,-11.8126,-11.8202,-11.8304,-11.8312,-11.8224,-11.8108,-11.8197,-11.816,-11.8044,-11.8256,-11.8144,-11.8166,-11.8304,-11.8518,-11.854,-11.8562,-11.8795,-11.8847,-11.8892,0,0,0,0,0,0,-11.7982,-11.8008,-11.8099,-11.8074,-11.8089,-11.8295,-11.8079,-11.806,-11.8096,-11.8072,-11.8056,-11.8044,-11.7969,-11.8127,-11.8148,-11.8281,-11.8009,-11.8527,-11.8546,-11.8563,-11.8813,-11.8856,-11.8893,0,0,0,0,0,-11.7988,-11.8008,-11.8154,-11.807,-11.8084,-11.8013,-11.8071,-11.8053,-11.8079,-11.8021,-11.8006,-11.8009,-11.7976,-11.7987,-11.8139,-11.8274,-11.7994,-11.8002,-11.8539,-11.8554,-11.8568,-11.8834,0,0,0,0,0,0,-11.7992,-11.7993,-11.8154,-11.8155,-11.7988,-11.8,-11.7999,-11.8048,-11.8024,-11.8011,-11.7968,-11.795,-11.7983,-11.799,-11.8,-11.8277,-11.7981,-11.799,-11.7995,-11.8551,-11.8563,-11.8573,0,0,0,0,0,0,-11.7981,-11.7995,-11.8155,-11.8057,-11.8046,-11.7988,-11.7987,-11.8102,-11.8026,-11.7971,-11.7955,-11.796,-11.7967,-11.7993,-11.8,-11.8183,-11.7972,-11.798,-11.7985,-11.7989,-11.856,-11.857,0,0,0,0,0,0,-11.7985,-11.7997,-11.8056,-11.8048,-11.8037,-11.804,-11.8088,-11.817,-11.7944,-11.7975,-11.792,-11.791,-11.7974,-11.7979,-11.8001,-11.8183,-11.8183,-11.7972,-11.7978,-11.7982,-11.7984,0,0,0,0,0,0,0,-11.7988,-11.7931,-11.815,-11.804,-11.803,-11.8164,-11.8164,-11.8164,-11.7941,-11.7932,-11.7923,-11.7914,-11.7927,-11.7935,-11.7944,-11.8182,0,0,-11.7971,-11.7975,0,0,0,0,0,0,0,0,-11.7923,-11.7929,-11.815,-11.815,-11.815,-11.8164,-11.8164,-11.8164,-11.794,-11.7932,-11.7925,-11.7918,-11.7929,-11.7936,-11.7943,0,0,0,0,0,0,0,0,0,0,0,0,0,0,0,-11.815,-11.815,0,-11.8164,-11.8164,-11.8164,-11.7939,-11.7932,-11.7926,-11.7921,-11.7931,-11.7937,-11.7943,0,0,0,0,0,0,0,0,0,0,0,0,0,0,0,0,0,0,0,0,0,0,0,0,0,0,0,0,0,0,0,0,0,0,0,0,0,0,0,0,0,0,0,0,0,0,0,0,0,0,0,0,0,0,0,0,0,0,0,0,0,0,0,0,0,0,0,0,0]}]]]